Regional Weather Roundup
Issued by NWS Goodland, KS

Home | Current Version | Previous Version | Text Only | Print | Product List | Glossary Off
Versions: 1 2 3 4 5 6 7 8 9 10 11 12 13 14 15 16 17 18 19 20 21 22 23 24 25 26 27 28 29 30 31 32 33 34 35 36 37 38 39 40 41 42 43 44 45 46 47 48 49 50

000
ASUS43 KGLD 152059
RWRGLD

GOODLAND FORECAST AREA HOURLY WEATHER ROUNDUP
NATIONAL WEATHER SERVICE GOODLAND KS
200 PM MST SUN JAN 15 2017

...OFFICIAL OBSERVATIONS...

CITY           SKY/WX    TMP DP  RH WIND       PRES   REMARKS
GOODLAND KS    FRZ RAIN  30  30 100 SE5       30.02S FOG
HILL CITY KS   CLOUDY    30  30 100 NE6       30.10F FOG
IMPERIAL NEB   FRZ RAIN  30  28  92 SE3       30.04F FOG
MCCOOK NEB     CLOUDY    31  30  96 E5        30.07F FOG
AKRON CO       LGT SNOW  30  24  78 CALM      29.98F
BURLINGTON CO  LGT SNOW  32  29  88 E5        30.00F FOG
LIMON CO       CLOUDY    32  29  88 N8        29.96S
$$

...UNOFFICIAL OBSERVATIONS...

CITY           SKY/WX    TMP DP  RH WIND       PRES   REMARKS
LENORA KS        N/A     29  32 100 CALM        N/A
NORTON KS      CLOUDY    30  27  86 E3        30.10R FOG
SHARON SPRINGS   N/A     30  29  94 CALM        N/A
TRENTON NEB      N/A     30  32 100 CALM        N/A
KIT CARSON CO    N/A     31  28  89 CALM        N/A
YUMA CO        MIX PCPN  28  27  93 CALM      30.00F
$$




USA.gov is the U.S. government's official web portal to all federal, state and local government web resources and services.